User: anonymous   Login
Location: Ay?beleni
(36.6500°N, 30.3000°E)
Time: 13:55:31
(UTC+00:00)
Language:

Meteor 1-21 Rocket - Orbit

View from above orbital plane
View from above orbital plane
View from above satellite
View from above satellite

Ground track
Ground track

The orbit data is extracted from the following two-line orbital elements,

1  7715U 75023B   20192.08871547 -.00000026  00000-0 -22712-4 0  9999
2  7715  81.2198 224.2201 0049885 223.2769 136.4477 14.06784678322997
Epoch (UTC): 10 July 2020 02:07:45
Eccentricity: 0.0049885
inclination: 81.2198°
perigee height: 834 km
apogee height: 906 km
right ascension of ascending node: 224.2201°
argument of perigee: 223.2769°
revolutions per day: 14.06784678
mean anomaly at epoch: 136.4477°
orbit number at epoch: 32299

The dashed part of the orbit path shows where the satellite is in the earth's shadow,  

DLR